User: anonymous   Login
Location: Unspecified
(0.0000°N, 0.0000°E)
Time: 16:17:56
(UTC+02:00)
Language:

Cosmos 1703 Rocket - Orbit

View from above orbital plane
View from above orbital plane
View from above satellite
View from above satellite

Ground track
Ground track

The orbit data is extracted from the following two-line orbital elements,

1 16263U 85108B   16241.89369959  .00000115  00000-0  11290-4 0  9996
2 16263  82.5039  28.5091 0018970 227.8887 292.9844 14.82935705661060
Epoch (UTC): 28 August 2016 21:26:55
Eccentricity: 0.0018970
inclination: 82.5039°
perigee height: 607 km
apogee height: 633 km
right ascension of ascending node: 28.5091°
argument of perigee: 227.8887°
revolutions per day: 14.82935705
mean anomaly at epoch: 292.9844°
orbit number at epoch: 66106

The dashed part of the orbit path shows where the satellite is in the earth's shadow,  

DLR